This demonstration page uses our WeatherBlox Daily Observations layout. Learn more.

Left ArrowRight Arrow

39.01783, -85.05884

Hourly Observations for August 25, 2015

Temp ( °F °C ) Dew Point ( °F °C ) Humidity (%) Winds ( mph kmh ) Pressure ( in mb ) Visibility ( mi km ) Precip ( " mm )
12:52 am 00:52 Mostly Clear 60 15.6 52 11.1 75 75 WSW 3 6 29.98 1015 10 16.0934 N/A
1:52 am 01:52 Clear 59 15 52 11.1 78 78 W 6 9 29.98 1015 10 16.0934 N/A
2:52 am 02:52 Clear 57 13.9 52 11.1 83 83 W 7 11 29.98 1015 10 16.0934 N/A
3:52 am 03:52 Clear 56 13.3 52 11.1 87 87 WSW 5 7 29.97 1015 10 16.0934 N/A
4:52 am 04:52 Clear 56 13.3 51 10.6 84 84 WSW 6 9 29.98 1015 10 16.0934 N/A
5:52 am 05:52 Clear 55 12.8 51 10.6 87 87 W 7 11 29.98 1015 10 16.0934 N/A
6:52 am 06:52 Clear 54 12.2 50 10 87 87 W 5 7 30 1016 10 16.0934 N/A
7:52 am 07:52 Sunny 55 12.8 51 10.6 87 87 W 5 7 30.01 1016 10 16.0934 N/A
8:52 am 08:52 Sunny 60 15.6 53 11.7 78 78 WNW 6 9 30.03 1017 10 16.0934 N/A
9:52 am 09:52 Sunny 64 17.8 51 10.6 63 63 NW 6 9 30.04 1017 10 16.0934 N/A
10:52 am 10:52 Mostly Sunny 67 19.4 48 8.9 51 51 NW 9 15 30.04 1017 10 16.0934 N/A
12:52 pm 12:52 Mostly Cloudy 71 21.8 47 8.1 42 42 W 12 19 30.04 1017 10 16.0934 N/A
1:52 pm 13:52 Mostly Cloudy 75 23.9 45 7.4 35 35 NW 13 20 30.02 1017 10 16.0934 N/A
2:52 pm 14:52 Mostly Cloudy 71 21.7 46 7.7 41 41 NW 9 15 30.02 1017 10 16.0934 N/A
3:52 pm 15:52 Cloudy 70 21.1 50 10 49 49 W 10 17 30.02 1017 10 16.0934 N/A
4:52 pm 16:52 Mostly Cloudy 70 21.1 51 10.6 51 51 NW 13 20 30.02 1017 10 16.0934 N/A
5:52 pm 17:52 Mostly Cloudy 71 21.7 51 10.6 49 49 W 10 17 30.01 1016 10 16.0934 N/A
6:52 pm 18:52 Mostly Cloudy 69 20.6 51 10.6 53 53 WNW 8 13 30.02 1017 10 16.0934 N/A
7:52 pm 19:52 Mostly Cloudy 68 20 53 11.7 59 59 W 5 7 30.02 1017 10 16.0934 N/A
8:52 pm 20:52 Mostly Cloudy 67 19.4 54 12.2 63 63 W 3 6 30.02 1017 10 16.0934 N/A
9:52 pm 21:52 Cloudy 66 18.9 54 12.2 65 65 WSW 3 6 30.04 1017 10 16.0934 N/A
10:52 pm 22:52 Cloudy 65 18.3 54 12.2 68 68 SW 3 6 30.04 1017 10 16.0934 N/A
11:52 pm 23:52 Mostly Clear 62 16.7 54 12.2 75 75 SW 5 7 30.04 1017 10 16.0934 N/A

Powered by AerisWeather